User: anonymous   Login
Location: Albany
(35.0000°S, 118.0000°E)
Time: 11:32:13
(UTC-04:00)
Language:

JAS-1B - Orbit

View from above orbital plane
View from above orbital plane
View from above satellite
View from above satellite

Ground track
Ground track

The orbit data is extracted from the following two-line orbital elements,

1 20480U 90013C   16121.56246322 -.00000042  00000-0 -14754-4 0  9991
2 20480  99.0257 326.8651 0539437 246.2295 168.2267 12.83410738228797
Epoch (UTC): 30 April 2016 13:29:56
Eccentricity: 0.0539437
inclination: 99.0257°
perigee height: 912 km
apogee height: 1743 km
right ascension of ascending node: 326.8651°
argument of perigee: 246.2295°
revolutions per day: 12.83410738
mean anomaly at epoch: 168.2267°
orbit number at epoch: 22879

The dashed part of the orbit path shows where the satellite is in the earth's shadow,  

DLR